Find Starlink 30227

NORAD ID: 57505 Int'l Des: 2023-113 Owner: SPXS Country: US Constellation: starlink operational
LEOCIRCULAR

Live-Position

3D-Globus wird geladen...

Über Starlink 30227

Beschreibung wird geladen...

Nächste Überflüge

Passes for default location (London). Set your location on the main map for personalized predictions.

Höhenverlauf

Loading altitude history...

Zweizeiliger Elementsatz

1 57505U 23113L 26130.08810126 .00020636 00000-0 86611-3 0 9992
2 57505 43.0014 19.0251 0007292 227.1841 132.8396 15.23080044153186
Epoch: 10. Mai 2026 • Age: 8 hours

Aktueller Status

Höhe 501.7 km
Geschwindigkeit 7.62 km/s
Subsatellitenpunkt 27.85°N, 30.63°E
Startdatum 7. Aug. 2023
Alter 2.7 years
Typ internet

Technische Details

Klassifizierung Payload
Masse 730.00 kg
Trockenmasse 700.00 kg
Gesamtmasse 730.00 kg
Länge 0.30 m
Durchmesser 4.10 m
Spannweite 29.00 m
Form Box + pan
Hersteller SPXS
Bus-Typ Starlink V2M
Phasenstatus In Orbit
Besitzer/Staat SPXS/US

Most Searched